Other Surface Observations
Issued by NWS

Home | Current Version | Previous Version | Text Only | Print | Product List | Glossary On
Versions: 1 2 3 4 5 6 7 8 9 10 11 12 13 14 15 16 17 18 19 20 21 22 23 24 25 26 27 28 29 30 31 32 33 34 35 36 37 38 39 40 41 42 43 44 45 46 47 48 49 50
000
SXUS52 KTAE 040819
OSOTAE
OSOTAE
North Florida/South Alabama/Southwest Georgia Weather Roundup
National Weather Service Tallahassee Florida
400 AM EDT FRI SEP 04 2015

Note: "fair" indicates few or no clouds below 12,000 feet with no
significant weather and/or obstructions to visibility.

!FLZ017-115-028-034-025-040900
...North Florida...

CITY           SKY/WX    TMP DP  RH WIND       PRES   REMARKS
TALLAHASSEE    PTCLDY    74  71  91 W3        29.94S
APALACHICOLA   PTCLDY    73  73 100 CALM      29.94S
PERRY          CLOUDY    76  74  91 CALM      29.94S
CROSS CITY       N/A     79  76  90 CALM      29.93S
JACKSONVILLE   CLOUDY    77  77 100 CALM      29.91S
$$

!FLZ112-006-005-002-011-040900
...Florida Panhandle...

CITY           SKY/WX    TMP DP  RH WIND       PRES   REMARKS
MARIANNA       CLEAR     72  71  97 CALM      29.94S
BONIFAY        NOT AVBL
PANAMA CITY NW FAIR      73  71  93 NW3       29.94R
TYNDALL AFB    PTCLDY    75  74  96 CALM      29.94S
TYND DRONE APT PTSUNNY   75  75 100 CALM      29.94S
DE FUNIAK SPR  FAIR      73  71  95 NW5       29.96S
EGLIN AFB      PTCLDY    75  72  90 NW6       29.95R
DESTIN         CLEAR     79  75  87 CALM      29.95R
HURLBURT       CLEAR     74  71  91 N3        29.94R
CRESTVIEW      CLEAR     70  69  97 E3        29.97R FOG
PENSACOLA      CLEAR     76  73  91 W5        29.94S
$$

!ALZ063-066-040900
...South Alabama...

CITY           SKY/WX    TMP DP  RH WIND       PRES   REMARKS
DOTHAN         CLEAR     74  71  91 NW5       29.99S
OZARK CAIRNS   CLEAR     72  71  96 W2        29.95S
FT RUCKER HELI PTCLDY    71  69  93 CALM      29.95S FOG
RUCKER HELI 3  FAIR      73  70  89 W3        29.97S
RUCKER HELI 2  NOT AVBL
FLORALA APT    CLOUDY    72  70  93 CALM      29.98S
ANDALUSIA      CLEAR     75  70  84 CALM      29.96S
TROY           PTCLDY    72  70  93 CALM      29.97F
EUFALA         FAIR      72  70  93 CALM      29.95S
MOBILE         CLEAR     71  71 100 CALM      29.96S
$$

!GAZ120>161-040900
...Southwest and South Central Georgia...

CITY           SKY/WX    TMP DP  RH WIND       PRES   REMARKS
THOMASVILLE    FAIR      72  72 100 CALM      29.94F
BAINBRIDGE     CLEAR     72  70  94 CALM      29.95S
MOODY AFB      CLOUDY    75  72  90 NW2       29.92F
VALDOSTA       MOCLDY    75  73  93 CALM      29.93F
MOULTRIE       PTCLDY    73  72  94 CALM      29.95S
BLAKELY        PTCLDY    75  73  94 CALM      29.95S
ALBANY         PTCLDY    75  71  87 CALM      29.96S
TIFTON         FAIR      75  72  89 CALM      29.94S
FITZGERALD     FAIR      75  74  96 CALM      29.96F FOG
CORDELE        FAIR      76  75  96 CALM      29.96S
AMERICUS       FAIR      72  72 100 CALM      29.97S FOG
HOMERVILLE     FAIR      77  77 100 CALM      29.93F
$$

!GMZ750-755-770-775-040900
...Coastal and Buoy Obs...

STATION/POSITION TIME  TEMP    WIND        PRES    VSBY  WAVE
                       AIR SEA DIR/SP/G                  HT/PER
                 (UTC) (F)     (DEG/KT/KT) (MB)    (MI)  (FT/S)
KEATON BEACH     0800   78     360/  2/  3 1013.8S
CEDAR KEY        0800   82     360/  2/  3 1013.8R
C TOWER          0800   83     280/  6/  6 1013.8R
APALACHICOLA BUO 0750   84 86  290/  6/  8 1013.7F         2/ 4
PANAMA CITY BUOY 0750   83 86  280/  6/  6 1014.2F         1/ 5
MOBILE BUOY      0750   82 84  240/  4/  6 1014.2S         1/ 4
ORANGE BCH AL BU 0750   83 85  260/  4/  6 1013.4F         1/ 5
$$



USA.gov is the U.S. government's official web portal to all federal, state and local government web resources and services.